Location: Asheville, NC
(35.6000°N, 82.5500°W)
Time: 15:56:14
(UTC-05:00)

Vanguard 2 Rocket - Pass Details

Date: 09 December 2017
Orbit: 556 x 3326 km, 32.9° (Epoch: 20 January)

Event Time Altitude Azimuth Distance (km) Brightness Sun altitude
Exits shadow 05:31:34 15° 243° (WSW) 4,897 10.2 -23.1°
Maximum altitude 05:33:48 16° 233° (SW) 4,675 10.1 -22.6°
Drops below altitude 10° 05:40:29 10° 202° (SSW) 4,507 10.3 -21.3°
Sets 05:45:32 0° 181° (S) 4,953 10.8 -20.3°
